This is the latest recevied weather packets stored in our database for station/object W5TUX. If no packets are shown the sender has not sent any weather packets the latest 1 day(s).
| Time | Temp. | Humidity | Pressure | Rain* | Wind** | Luminosity | Snow |
|---|---|---|---|---|---|---|---|
| 1778002909 | 27.22° C | 68% | 1010.1 hPa | 0 mm | 2.68 m/s, 224° | 396 W/m² | - |
| 1778002606 | 27.22° C | 68% | 1010.1 hPa | 0 mm | 3.13 m/s, 257° | 383 W/m² | - |
| 1778002303 | 26.67° C | 69% | 1010.1 hPa | 0 mm | 3.13 m/s, 218° | 355 W/m² | - |
| 1778002001 | 27.22° C | 68% | 1010.1 hPa | 0 mm | 2.24 m/s, 226° | 364 W/m² | - |
| 1778001698 | 26.67° C | 69% | 1010.2 hPa | 0 mm | 1.79 m/s, 233° | 411 W/m² | - |
| 1778001397 | 26.67° C | 70% | 1010 hPa | 0 mm | 1.34 m/s, 221° | 287 W/m² | - |
| 1778001095 | 27.22° C | 70% | 1009.8 hPa | 0 mm | 2.24 m/s, 253° | 287 W/m² | - |
| 1778000792 | 27.22° C | 70% | 1010.3 hPa | 0 mm | 0.89 m/s, 215° | 282 W/m² | - |
| 1778000488 | 26.67° C | 69% | 1010.1 hPa | 0 mm | 1.79 m/s, 260° | 342 W/m² | - |
| 1778000183 | 27.22° C | 69% | 1010.1 hPa | 0 mm | 5.81 m/s, 196° | 416 W/m² | - |
| 1777999880 | 26.67° C | 70% | 1009.9 hPa | 0 mm | 1.34 m/s, 248° | 395 W/m² | - |
| 1777999575 | 26.67° C | 70% | 1010.2 hPa | 0 mm | 1.34 m/s, 284° | 328 W/m² | - |
| 1777999273 | 26.11° C | 71% | 1010.2 hPa | 0 mm | 1.34 m/s, 237° | 272 W/m² | - |
| 1777998971 | 25.56° C | 71% | 1010.1 hPa | 0 mm | 1.79 m/s, 205° | 277 W/m² | - |
| 1777998668 | 25.56° C | 72% | 1010.3 hPa | 0 mm | 3.58 m/s, 206° | 229 W/m² | - |
| 1777998366 | 26.11° C | 71% | 1010.3 hPa | 0 mm | 0.89 m/s, 195° | 225 W/m² | - |
| 1777998063 | 26.11° C | 70% | 1010 hPa | 0 mm | 1.34 m/s, 259° | 233 W/m² | - |
| 1777997760 | 26.11° C | 71% | 1010.1 hPa | 0 mm | 1.79 m/s, 230° | 321 W/m² | - |
| 1777997457 | 26.11° C | 71% | 1010 hPa | 0 mm | 0.89 m/s, 219° | 295 W/m² | - |
| 1777997155 | 26.11° C | 70% | 1009.9 hPa | 0 mm | 3.58 m/s, 212° | 273 W/m² | - |
| 1777996852 | 25.56° C | 72% | 1009.9 hPa | 0 mm | 0.89 m/s, 229° | 275 W/m² | - |
| 1777996548 | 26.11° C | 72% | 1010 hPa | 0 mm | 3.58 m/s, 315° | 310 W/m² | - |
| 1777996245 | 26.11° C | 71% | 1010 hPa | 0 mm | 3.13 m/s, 269° | 369 W/m² | - |
| 1777995941 | 26.67° C | 70% | 1009.7 hPa | 0 mm | 1.34 m/s, 197° | 331 W/m² | - |
| 1777995637 | 26.11° C | 71% | 1009.7 hPa | 0 mm | 0.89 m/s, 224° | 403 W/m² | - |
* Rain latest hour (hover to see other rain measurements)
** Current wind speed in m/s (hover to see current wind gust speed)